Change the Weather History Date:

Friday, March 22, 2013

  Actual Average Record
Temperature  
Mean Temperature 56 °F -  
Max Temperature 65 °F 70 °F 87 °F (1982)
Min Temperature 49 °F 47 °F 25 °F (1960)
Degree Days  
Heating Degree Days 8    
Growing Degree Days 6 (Base 50)    
Moisture  
Dew Point 39 °F    
Average Humidity 50    
Maximum Humidity 70    
Minimum Humidity 33    
Precipitation  
Precipitation 0.00 in - - ()
Sea Level Pressure  
Sea Level Pressure 29.96 in    
Wind  
Wind Speed 9 mph (East)    
Max Wind Speed 17 mph    
Max Gust Speed 25 mph    
Visibility 10 miles    
Events      
Averages and records for this station are not official NWS values.
T = Trace of Precipitation, MM = Missing Value Source: NWS Daily Summary

Daily Weather History Graph

Daily Weather History Graph

Search for Another Location

Airport or City:

Trip Planner

Search our weather history database for the weather conditions in past years. The results will help you decide how hot, cold, wet, or windy it might be!

Date:

Astronomy

Mar. 22, 2013 Rise Set
Actual Time 6:47 AM CDT 6:58 PM CDT
Civil Twilight 6:23 AM CDT 7:23 PM CDT
Nautical Twilight 5:55 AM CDT 7:51 PM CDT
Astronomical Twilight 5:26 AM CDT 8:19 PM CDT
Moon 2:42 PM CDT (3/22) 3:29 AM CDT (3/22)
Length of Visible Light 12h 59m
Length of Day
12h 11m
Waxing Gibbous, 77% of the Moon is Illuminated
Mar 22
Waxing Gibbous
Mar 27
Full
Apr 2
Last Quarter
Apr 10
New
Apr 18
First Quarter

Hourly Weather History & Observations

Time (CDT) Temp. Dew Point Humidity Pressure Visibility Wind Dir Wind Speed Gust Speed Precip Events Conditions
12:55 AM 49.5 °F 39.9 °F 70% 29.95 in 10.0 mi North 3.5 mph - N/A   Mostly Cloudy
1:55 AM 50.4 °F 39.6 °F 66% 29.94 in 10.0 mi NNE 5.8 mph - N/A   Mostly Cloudy
2:55 AM 51.1 °F 40.1 °F 66% 29.94 in 10.0 mi NNE 5.8 mph - N/A   Mostly Cloudy
3:55 AM 53.2 °F 36.1 °F 52% 29.92 in 10.0 mi ENE 6.9 mph - N/A   Mostly Cloudy
4:55 AM 53.4 °F 29.7 °F 40% 29.93 in 10.0 mi East 12.7 mph - N/A   Mostly Cloudy
5:55 AM 52.3 °F 30.7 °F 44% 29.94 in 10.0 mi East 10.4 mph - N/A   Mostly Cloudy
6:55 AM 51.6 °F 30.6 °F 45% 29.99 in 10.0 mi ENE 9.2 mph - N/A   Overcast
7:55 AM 52.0 °F 29.1 °F 41% 30.01 in 10.0 mi East 12.7 mph - N/A   Mostly Cloudy
8:30 AM 51.8 °F 30.2 °F 44% 30.01 in 10.0 mi East 12.7 mph - N/A   Mostly Cloudy
8:55 AM 53.4 °F 28.8 °F 39% 29.99 in 10.0 mi East 11.5 mph - N/A   Mostly Cloudy
9:55 AM 57.2 °F 28.4 °F 33% 29.99 in 10.0 mi East 13.8 mph - N/A   Mostly Cloudy
9:59 AM 57.2 °F 28.4 °F 33% 29.99 in 10.0 mi East 9.2 mph - N/A   Mostly Cloudy
10:05 AM 57.2 °F 28.4 °F 33% 29.99 in 10.0 mi East 13.8 mph - N/A   Mostly Cloudy
10:55 AM 59.2 °F 30.4 °F 34% 29.99 in 10.0 mi ESE 11.5 mph 20.7 mph N/A   Mostly Cloudy
11:55 AM 62.6 °F 41.4 °F 46% 29.99 in 10.0 mi ESE 11.5 mph - N/A   Mostly Cloudy
12:55 PM 62.4 °F 45.0 °F 53% 29.97 in 10.0 mi ESE 15.0 mph - N/A   Mostly Cloudy
1:55 PM 63.5 °F 46.8 °F 54% 29.96 in 10.0 mi SE 17.3 mph - N/A   Mostly Cloudy
2:55 PM 64.8 °F 48.6 °F 56% 29.92 in 10.0 mi SE 16.1 mph 25.3 mph N/A   Scattered Clouds
3:56 PM 63.1 °F 47.3 °F 56% 29.93 in 10.0 mi ESE 12.7 mph - N/A   Overcast
4:55 PM 63.0 °F 45.7 °F 53% 29.94 in 10.0 mi SE 13.8 mph - N/A   Overcast
5:59 PM 63.1 °F 44.1 °F 50% 29.93 in 10.0 mi SE 8.1 mph - N/A   Overcast
6:55 PM 63.0 °F 45.3 °F 53% 29.93 in 10.0 mi ESE 8.1 mph - N/A   Overcast
7:55 PM 63.0 °F 47.8 °F 58% 29.95 in 10.0 mi SE 8.1 mph - N/A   Overcast
8:55 PM 62.8 °F 49.5 °F 62% 29.95 in 10.0 mi East 5.8 mph - N/A   Overcast
9:34 PM 62.6 °F 50.0 °F 63% 29.93 in 10.0 mi ESE 5.8 mph - N/A   Overcast
9:55 PM 62.6 °F 49.1 °F 61% 29.95 in 10.0 mi East 6.9 mph - N/A   Overcast
10:55 PM 63.0 °F 41.5 °F 45% 29.95 in 10.0 mi East 8.1 mph - N/A   Overcast
11:55 PM 63.0 °F 39.9 °F 43% 29.94 in 10.0 mi East 5.8 mph - N/A   Overcast